CW7218 Weather Reports


time (UTC)temp
C
wind
direction
speed
KPH
gust
KPH
rain 1hr
cm
rain 24hr
cm
rain mn
cm
humidity
%
barometer
mb
20260507161017 16 203 8.0 16.1 0.00 0.00 0.00 65 1009.7
20260507160017 16 203 12.9 22.5 0.00 0.00 0.00 65 1009.8
20260507155017 16 203 14.5 25.7 0.00 0.00 0.00 64 1009.6
20260507154018 16 203 14.5 27.4 0.00 0.00 0.00 64 1009.8
20260507153018 16 180 17.7 29.0 0.00 0.00 0.00 62 1009.9
20260507152038 17 180 14.5 27.4 0.00 0.00 0.00 61 1010.0
20260507151018 17 158 6.4 24.1 0.00 0.00 0.00 57 1009.9
20260507150017 17 248 6.4 16.1 0.00 0.00 0.00 51 1009.8
20260507145017 18 203 9.7 17.7 0.00 0.00 0.00 50 1010.1
20260507144037 18 180 8.0 17.7 0.00 0.00 0.00 52 1010.1
20260507143017 17 180 6.4 11.3 0.00 0.00 0.00 52 1010.0
20260507142017 17 203 6.4 14.5 0.00 0.00 0.00 52 1010.2
20260507141037 17 180 6.4 14.5 0.00 0.00 0.00 50 1010.3
20260507140017 17 158 4.8 12.9 0.00 0.00 0.00 53 1010.4
20260507135017 17 203 3.2 8.0 0.00 0.00 0.00 55 1010.5
20260507134017 17 225 1.6 8.0 0.00 0.00 0.00 55 1010.8
20260507133017 16 203 4.8 11.3 0.00 0.00 0.00 56 1010.9
20260507132017 16 180 6.4 12.9 0.00 0.00 0.00 56 1011.0
20260507131017 17 158 8.0 16.1 0.00 0.00 0.00 56 1011.1
20260507130017 16 180 8.0 12.9 0.00 0.00 0.00 58 1011.2
20260507125017 17 180 6.4 12.9 0.00 0.00 0.00 56 1011.4
20260507124017 16 180 9.7 19.3 0.00 0.00 0.00 58 1011.4
20260507123017 17 180 8.0 14.5 0.00 0.00 0.00 57 1011.5
20260507122017 17 180 8.0 17.7 0.00 0.00 0.00 57 1011.6
20260507121017 16 203 8.0 16.1 0.00 0.00 0.00 59 1011.6
20260507120017 16 203 11.3 20.9 0.00 0.00 0.00 59 1011.7
20260507115017 16 180 9.7 19.3 0.00 0.00 0.00 58 1011.8
20260507114019 16 180 8.0 14.5 0.00 0.00 0.00 58 1012.1
20260507113019 16 180 8.0 17.7 0.00 0.00 0.00 59 1012.0
20260507112039 16 180 8.0 17.7 0.00 0.00 0.00 60 1012.1
20260507111019 16 135 9.7 17.7 0.00 0.00 0.00 61 1012.3
20260507110039 16 158 8.0 17.7 0.00 0.00 0.00 62 1012.5
20260507105019 15 180 9.7 19.3 0.00 0.00 0.00 63 1012.5
20260507104019 16 158 8.0 20.9 0.00 0.00 0.00 59 1012.7
20260507103039 16 158 4.8 11.3 0.00 0.00 0.00 63 1012.5
20260507102018 15 158 8.0 20.9 0.00 0.00 0.00 64 1012.6
20260507101018 15 135 9.7 20.9 0.00 0.00 0.00 65 1012.7
20260507100019 15 158 9.7 19.3 0.00 0.00 0.00 65 1012.7
20260507095039 15 158 6.4 14.5 0.00 0.00 0.00 66 1012.8
20260507094039 15 135 6.4 16.1 0.00 0.00 0.00 64 1013.0
20260507093019 15 158 4.8 14.5 0.00 0.00 0.00 64 1012.8
20260507092019 15 158 8.0 16.1 0.00 0.00 0.00 65 1012.7
20260507091019 15 158 6.4 14.5 0.00 0.00 0.00 68 1012.8
20260507090018 14 180 8.0 17.7 0.00 0.00 0.00 69 1013.0
20260507085018 13 180 8.0 14.5 0.00 0.00 0.00 71 1013.0
20260507084018 13 158 4.8 12.9 0.00 0.00 0.00 70 1013.0
20260507083038 13 315 4.8 12.9 0.00 0.00 0.00 70 1013.2
20260507082018 13 158 3.2 9.7 0.00 0.00 0.00 68 1013.3
20260507081018 13 158 3.2 8.0 0.00 0.00 0.00 69 1013.4
20260507080018 13 158 4.8 11.3 0.00 0.00 0.00 70 1013.4
20260507075018 13 158 4.8 12.9 0.00 0.00 0.00 70 1013.4
20260507074018 13 113 3.2 8.0 0.00 0.00 0.00 69 1013.4
20260507073018 13 113 1.6 6.4 0.00 0.00 0.00 69 1013.4
20260507072018 12 90 3.2 8.0 0.00 0.00 0.00 71 1013.3
20260507071038 12 90 3.2 6.4 0.00 0.00 0.00 75 1013.2
20260507070018 11 90 3.2 9.7 0.00 0.00 0.00 77 1013.0
20260507065018 10 68 4.8 11.3 0.00 0.00 0.00 80 1012.8
20260507064018 10 45 8.0 12.9 0.00 0.00 0.00 80 1013.0
20260507063018 10 45 6.4 11.3 0.00 0.00 0.00 81 1012.8
20260507062018 9 45 8.0 12.9 0.00 0.00 0.00 82 1012.9
20260507061018 9 68 4.8 11.3 0.00 0.00 0.00 82 1012.8
20260507060018 8 68 8.0 16.1 0.00 0.00 0.00 84 1012.5
20260507055038 8 45 9.7 12.9 0.00 0.00 0.00 85 1012.5
20260507054018 8 45 11.3 16.1 0.00 0.00 0.00 86 1012.4
20260507053018 8 45 11.3 14.5 0.00 0.00 0.00 85 1012.4
20260507052038 8 45 9.7 14.5 0.00 0.00 0.00 85 1012.4
20260507051018 8 45 8.0 12.9 0.00 0.00 0.00 85 1012.5
20260507050018 8 45 8.0 11.3 0.00 0.00 0.00 86 1012.4
20260507045018 8 45 8.0 14.5 0.00 0.00 0.00 86 1012.5
20260507044018 8 45 9.7 12.9 0.00 0.00 0.00 86 1012.4
20260507043018 8 23 9.7 14.5 0.00 0.00 0.00 84 1012.3
20260507042018 8 45 8.0 14.5 0.00 0.00 0.00 86 1012.4
20260507041038 8 45 8.0 12.9 0.00 0.00 0.00 85 1012.3
20260507040038 8 45 9.7 14.5 0.00 0.00 0.00 84 1012.4
20260507035017 8 45 8.0 11.3 0.00 0.00 0.00 84 1012.3
20260507034018 8 45 8.0 11.3 0.00 0.00 0.00 84 1012.5
20260507033017 9 45 4.8 8.0 0.00 0.00 0.00 80 1012.6
20260507032017 9 45 6.4 9.7 0.00 0.00 0.00 81 1012.5
20260507031017 9 68 3.2 8.0 0.00 0.00 0.00 81 1012.4
20260507030017 9 45 3.2 8.0 0.00 0.00 0.00 81 1012.5
20260507025017 9 23 4.8 12.9 0.00 0.00 0.00 82 1012.5
20260507024017 9 45 6.4 11.3 0.00 0.00 0.00 83 1012.5
20260507023017 9 68 6.4 11.3 0.00 0.00 0.00 84 1012.6
20260507022017 9 90 6.4 11.3 0.00 0.00 0.00 85 1012.7
20260507021017 9 68 9.7 12.9 0.00 0.00 0.00 85 1012.6
20260507020057 9 90 9.7 17.7 0.00 0.00 0.00 84 1012.5
20260507015017 10 45 9.7 14.5 0.00 0.00 0.00 84 1012.4
20260507014017 10 68 12.9 20.9 0.00 0.00 0.00 84 1012.4
20260507013057 10 45 9.7 16.1 0.00 0.00 0.00 83 1012.5
20260507012037 10 23 9.7 16.1 0.00 0.00 0.00 82 1012.6
20260507011017 10 45 8.0 14.5 0.00 0.00 0.00 81 1012.7
20260507010017 10 45 6.4 11.3 0.00 0.00 0.00 82 1012.8
20260507005017 10 23 6.4 8.0 0.00 0.00 0.00 81 1013.2
20260507004017 10 45 3.2 9.7 0.00 0.00 0.00 81 1013.3
20260507003037 10 45 6.4 9.7 0.00 0.00 0.00 81 1013.3
20260507002017 10 45 8.0 11.3 0.00 0.00 0.00 80 1013.3
20260507001017 10 45 6.4 11.3 0.00 0.00 0.00 79 1013.2
20260507000017 10 45 4.8 8.0 0.00 0.00 0.00 79 1013.3
20260506235017 10 45 8.0 12.9 0.00 0.00 0.00 78 1013.3
20260506234017 11 45 6.4 11.3 0.00 0.00 0.00 76 1013.3
20260506233017 11 45 6.4 11.3 0.00 0.00 0.00 76 1013.2
20260506232057 11 45 8.0 12.9 0.00 0.00 0.00 76 1013.2
20260506231037 11 23 6.4 12.9 0.00 0.00 0.00 75 1013.0
20260506230017 11 45 6.4 9.7 0.00 0.00 0.00 75 1012.9
20260506225017 11 45 6.4 11.3 0.00 0.00 0.00 74 1012.9
20260506224017 11 68 4.8 11.3 0.00 0.00 0.00 74 1012.7
20260506223017 11 180 3.2 4.8 0.00 0.00 0.00 79 1012.7
20260506222017 11 203 4.8 8.0 0.00 0.00 0.00 78 1012.7
20260506221017 12 180 4.8 8.0 0.00 0.00 0.00 76 1012.6
20260506220017 12 180 3.2 6.4 0.00 0.00 0.00 75 1012.7
20260506215017 12 203 4.8 12.9 0.00 0.00 0.00 74 1012.7
20260506214017 12 248 6.4 9.7 0.00 0.00 0.00 72 1012.7
20260506213017 12 248 8.0 11.3 0.00 0.00 0.00 72 1012.6
20260506212017 12 248 6.4 11.3 0.00 0.00 0.00 72 1012.6
20260506211017 12 248 4.8 8.0 0.00 0.00 0.00 71 1012.5
20260506210019 12 225 4.8 8.0 0.00 0.00 0.00 70 1012.6
20260506205018 12 203 4.8 6.4 0.00 0.00 0.00 70 1012.4
20260506204019 12 203 3.2 9.7 0.00 0.00 0.00 70 1012.1
20260506203018 12 180 6.4 11.3 0.00 0.00 0.00 70 1011.9
20260506202018 12 158 3.2 8.0 0.00 0.00 0.00 69 1011.7
20260506201019 13 158 4.8 11.3 0.00 0.00 0.00 66 1011.4
20260506200018 13 180 3.2 6.4 0.00 0.00 0.00 65 1011.3
20260506195019 13 248 4.8 11.3 0.00 0.00 0.00 62 1011.1
20260506194018 13 248 6.4 11.3 0.00 0.00 0.00 62 1010.5
20260506193018 13 248 6.4 12.9 0.00 0.00 0.00 63 1010.4
20260506192018 13 248 4.8 11.3 0.00 0.00 0.00 63 1010.2
20260506191018 13 248 4.8 8.0 0.00 0.00 0.00 62 1010.1
20260506190019 13 270 4.8 6.4 0.00 0.00 0.00 62 1010.0
20260506185018 14 225 4.8 8.0 0.00 0.00 0.00 62 1009.8
20260506184018 14 180 4.8 9.7 0.00 0.00 0.00 61 1009.7
20260506183018 14 180 6.4 11.3 0.00 0.00 0.00 59 1009.6
20260506182018 15 180 6.4 11.3 0.00 0.00 0.00 58 1009.8
20260506181018 15 203 8.0 14.5 0.00 0.00 0.00 57 1009.6
20260506180018 15 203 12.9 20.9 0.00 0.00 0.00 56 1009.5
20260506175038 15 203 11.3 19.3 0.00 0.00 0.00 56 1009.4
20260506174058 15 203 12.9 22.5 0.00 0.00 0.00 55 1009.2
20260506173018 15 203 14.5 27.4 0.00 0.00 0.00 55 1009.1
20260506172038 15 203 12.9 19.3 0.00 0.00 0.00 55 1009.1
20260506171018 15 203 12.9 22.5 0.00 0.00 0.00 54 1009.0
20260506170018 15 203 16.1 27.4 0.00 0.03 0.00 54 1008.9
20260506165038 16 225 14.5 27.4 0.00 0.03 0.00 53 1009.0
20260506164018 16 203 17.7 32.2 0.00 0.03 0.00 54 1009.0
20260506163018 16 203 16.1 30.6 0.00 0.03 0.00 53 1009.0
20260506162018 15 203 16.1 27.4 0.00 0.03 0.00 53 1008.9
20260506161038 16 203 16.1 32.2 0.00 0.03 0.00 52 1008.9